User: anonymous   Login
Location: Caltech
(34.1382°N, 118.1253°W)
Time: 14:20:04
(UTC-08:00)
Language:

Cosmos 1975 - Orbit

View from above orbital plane
View from above orbital plane
View from above satellite
View from above satellite

Ground track
Ground track

The orbit data is extracted from the following two-line orbital elements,

1 19573U 88093A   18052.64844310 -.00000120 +00000-0 -10694-4 0  9998
2 19573 082.5189 104.0986 0015039 162.9272 197.2464 15.04400514576178
Epoch (UTC): 21 February 2018 15:33:45
Eccentricity: 0.0015039
inclination: 82.5189°
perigee height: 543 km
apogee height: 564 km
right ascension of ascending node: 104.0986°
argument of perigee: 162.9272°
revolutions per day: 15.04400514
mean anomaly at epoch: 197.2464°
orbit number at epoch: 57617

The dashed part of the orbit path shows where the satellite is in the earth's shadow,  

DLR